Regional Weather Roundup
Issued by NWS Albany, NY

Home | Current Version | Previous Version | Text Only | Print | Product List | Glossary On
Versions: 1 2 3 4 5 6 7 8 9 10 11 12 13 14 15 16 17 18 19 20 21 22 23 24 25 26 27
000
ASUS41 KALY 260110
RWRALY

NEW YORK STATE HOURLY WEATHER ROUNDUP
NATIONAL WEATHER SERVICE ALBANY NY
900 PM EDT SUN JUN 25 2017

NOTE: "FAIR" INDICATES FEW OR NO CLOUDS BELOW 12,000 FEET WITH NO
SIGNIFICANT WEATHER AND/OR NO OBSTRUCTIONS TO VISIBILITY.

NYZ032-033-038>043-046>054-057>066-NYZ062>081-082-084-260200-
EAST


CITY           SKY/WX    TMP DP  RH WIND       PRES   REMARKS
ALBANY         PTCLDY    63  56  78 NW8       29.95R
GLENS FALLS    PTCLDY    56  54  93 SW5       29.95R
POUGHKEEPSIE   PTCLDY    68  58  70 CALM      29.91R
MONTGOMERY     CLEAR     67  58  72 CALM      29.93R
ISLIP          PTCLDY    72  62  71 SW7       29.95S
NEW YORK CITY  MOCLDY    77  63  61 S7        29.93R
CENTRAL PARK   PTCLDY    75  60  59 CALM      29.96R
$$

NYZ005>009-017-018-044>046-055-056-260200-
CENTRAL


CITY           SKY/WX    TMP DP  RH WIND       PRES   REMARKS
FULTON         CLEAR     58  55  90 S7        29.97S
SYRACUSE       PTCLDY    60  52  74 S5        29.97R
ROME           CLOUDY    59  54  83 SW6       29.97F
ELMIRA         NOT AVBL
BINGHAMTON     CLOUDY    55  52  88 SW8       30.03R
MONTICELLO     MOCLDY    66  48  52 W6        29.99R
$$

NYZ026>034-041>043-087-260200-
NORTH


CITY           SKY/WX    TMP DP  RH WIND       PRES   REMARKS
WATERTOWN      CLEAR     59  53  80 SW8       29.94R
FORT DRUM      NOT AVBL
OGDENSBURG     LGT RAIN  61  51  69 NW8       29.90S
MASSENA        PTCLDY    57  55  93 S5        29.89F
SARANAC LAKE   PTCLDY    59  45  59 W8        29.91F
PLATTSBURGH    CLOUDY    63  53  70 E5        29.89S
$$

NYZ001>004-010>016-019>021-085-260200-
WEST


CITY           SKY/WX    TMP DP  RH WIND       PRES   REMARKS
NIAGARA FALLS  PTCLDY    66  46  48 W10       29.97R
BUFFALO        MOCLDY    66  50  56 W14       29.98R
DUNKIRK        MOCLDY    65  52  62 SW12G21   30.01S
JAMESTOWN      CLEAR     59  45  58 W8        30.04S
WELLSVILLE     CLEAR     56  47  71 W7        30.05S
ROCHESTER      PTCLDY    60  56  86 SW3       29.97S
PENN YAN       CLEAR     62  49  62 SW9       29.99R
$$

             KEY
       WCI = WIND CHILL INDEX
       VSB = VISIBILITY
       HX  = HEAT INDEX
$$




USA.gov is the U.S. government's official web portal to all federal, state and local government web resources and services.